User: anonymous   Login
Location: Unspecified
(0.0000°N, 0.0000°E)
Time: 00:57:09
(UTC+00:00)
Language:

APRIZESAT 1 (LATINSAT C) - Orbit

View from above orbital plane
View from above orbital plane
View from above satellite
View from above satellite

Ground track
Ground track

The orbit data is extracted from the following two-line orbital elements,

1 28372U 04025G   18351.85683872  .00000006  00000-0  13275-4 0  9996
2 28372  98.3235 295.5353 0045719 210.5599 149.2930 14.49570142765051
Epoch (UTC): 17 December 2018 20:33:50
Eccentricity: 0.0045719
inclination: 98.3235°
perigee height: 694 km
apogee height: 759 km
right ascension of ascending node: 295.5353°
argument of perigee: 210.5599°
revolutions per day: 14.49570142
mean anomaly at epoch: 149.2930°
orbit number at epoch: 76505

The dashed part of the orbit path shows where the satellite is in the earth's shadow,  

DLR